Dewpoint
66 66 65 65 65 65 65 66 65 65 66 66 65 65 64 63 63 63 63 62 61 61 60 59 60 60 60 60 61 61 62 63 64 64 64 64 65 65 68 69 70 70 70 70 70 70 68 68 68 68 68 67 66 66 67 66 65 66 65 65 64 64 64 63 63 62 62 62 63 64 64 65 65 65 66 66 66 66 67 66 66 66 66 66 66
65 65 65 65 64 65 66 65 65 65 66 66 66 65 65 63 63 64 63 62 63 62 65 63 64 64 63 62 63 62 62 62 62 63 64 64 65 66 67 68 69 70 70 70 71 70 70 69 69 68 67 67 67 67 66 66 65 65 66 65 65 64 64 64 63 63 63 63 63 63 63 65 65 65 66 66 66 66 66 66 66 66 66 66 66
66 65 65 64 64 64 65 65 65 65 65 66 65 65 65 64 64 65 65 64 65 64 65 65 65 64 64 64 63 64 63 64 64 63 63 64 64 65 65 67 69 70 70 69 70 70 70 69 68 68 67 66 67 67 67 67 65 65 66 65 65 65 64 63 63 63 63 63 63 63 63 64 65 65 66 66 66 66 66 66 66 66 66 66 66
66 66 66 65 65 65 65 65 65 65 66 66 65 65 65 64 65 66 66 65 65 65 65 65 64 64 64 64 64 64 65 64 63 63 63 64 64 65 65 65 67 69 70 69 69 70 70 69 67 67 68 68 67 67 67 67 67 66 65 66 65 65 64 64 63 63 63 63 63 63 63 64 65 65 65 66 66 66 66 66 66 66 66 66 66
66 66 67 65 65 65 65 66 66 66 66 66 65 65 66 66 66 67 66 66 65 65 65 65 64 64 64 64 64 64 64 64 64 64 63 63 64 65 65 65 66 67 68 70 69 69 69 70 69 68 68 67 67 67 66 67 67 66 66 66 65 65 64 64 63 63 63 63 63 63 63 64 64 65 65 65 65 66 66 66 66 65 65 65 65
66 66 66 65 65 65 65 65 66 65 65 65 66 65 66 65 65 65 66 65 64 63 64 63 63 63 64 64 64 65 64 64 64 64 64 64 64 64 65 65 65 66 66 67 69 69 68 68 69 69 67 68 67 67 67 67 66 66 66 66 66 65 65 64 64 64 63 63 63 63 63 63 64 65 65 65 65 65 66 66 66 65 65 65 65
66 66 66 66 65 65 65 65 66 66 65 65 65 64 64 64 64 63 62 62 62 64 64 63 63 63 64 64 64 64 64 64 65 64 64 65 64 64 64 65 65 65 66 66 67 68 68 68 69 68 68 68 67 67 67 67 67 66 65 67 66 66 65 65 64 64 63 63 63 62 62 63 63 64 65 65 65 65 65 66 65 65 65 65 65
66 66 66 65 66 65 66 65 66 65 65 65 65 64 63 63 64 63 63 63 63 62 62 63 63 63 64 64 64 64 64 64 64 64 65 65 65 65 65 65 65 65 66 66 66 66 67 68 68 68 68 68 68 68 67 67 67 67 67 66 66 66 65 65 65 64 64 63 63 63 62 62 63 64 64 64 65 65 65 65 65 65 65 65 65
67 66 66 65 65 65 65 66 66 65 64 63 64 63 64 64 63 64 63 63 62 62 62 63 63 64 64 64 64 64 64 64 64 64 65 65 65 65 65 65 65 67 67 66 66 66 66 66 67 67 67 67 67 68 67 67 67 67 66 67 66 65 66 65 65 65 64 64 64 63 62 62 63 63 64 64 65 65 65 65 65 65 65 65 65
66 66 66 66 65 65 64 65 65 64 64 63 63 63 63 63 64 62 63 63 62 62 63 63 63 64 63 63 63 63 63 63 64 65 64 64 64 64 65 65 66 66 66 66 66 66 66 66 66 66 66 67 67 67 67 67 67 66 66 66 66 66 66 66 65 65 64 64 63 63 63 63 63 62 64 63 64 64 65 65 65 65 65 65 65
67 66 66 66 65 64 64 65 65 64 63 62 62 63 63 62 63 64 63 63 63 63 63 63 63 63 63 63 63 62 63 63 63 63 63 63 63 65 64 64 65 65 66 66 66 66 66 66 66 66 66 66 67 67 67 66 67 67 67 67 67 66 67 67 66 65 65 65 64 63 63 63 63 63 62 63 64 64 65 65 65 65 65 65 64
66 66 66 65 64 64 64 64 64 63 63 63 63 63 63 64 63 64 63 62 62 62 62 63 62 61 61 61 61 61 61 62 62 62 62 62 62 63 63 64 64 64 65 65 66 65 65 65 66 65 65 65 65 66 66 66 66 66 67 67 67 66 66 66 66 66 65 65 64 64 64 63 63 63 62 63 64 64 64 64 65 65 65 64 64
66 65 65 67 64 63 64 64 64 63 63 63 63 63 64 64 64 63 63 62 62 61 62 61 59 60 59 59 59 60 61 61 61 61 61 61 61 62 63 63 63 63 64 64 64 65 65 65 65 65 65 65 65 65 65 66 66 66 67 67 67 67 66 67 67 66 66 65 64 64 64 63 63 63 63 62 63 64 64 64 64 64 64 64 64
67 65 65 64 64 64 64 64 63 63 64 64 64 66 65 65 64 63 62 62 62 62 63 60 58 59 59 58 57 57 58 58 60 60 61 61 61 61 61 62 63 63 64 64 64 64 64 64 65 65 64 65 65 65 65 65 65 66 67 67 67 67 67 67 66 66 66 65 64 64 64 64 63 64 63 63 63 63 64 64 64 64 64 64 64
66 66 64 64 64 64 64 64 64 66 65 65 65 65 64 64 63 62 61 60 61 61 61 61 60 59 57 57 55 56 57 57 56 60 60 61 61 61 61 62 63 63 63 63 63 63 64 64 64 64 64 64 64 64 65 65 65 65 65 66 67 67 67 67 67 67 67 66 65 65 65 64 63 64 64 63 62 62 63 64 64 64 64 63 64
66 66 65 64 63 64 64 65 65 65 65 65 64 63 63 63 62 63 60 59 57 58 60 60 61 59 57 57 57 56 53 54 57 59 60 60 61 61 61 61 62 63 63 63 63 63 63 64 64 64 64 64 64 64 64 64 64 65 65 65 66 66 67 67 67 66 66 66 65 65 64 64 63 63 63 63 63 63 63 63 64 63 64 64 63
65 65 65 64 64 64 65 64 65 65 64 64 63 64 64 63 62 62 60 60 59 57 59 60 60 61 60 58 56 53 54 56 59 58 59 60 60 60 61 61 61 62 62 62 63 63 63 63 63 64 63 64 64 64 64 64 64 65 64 65 65 66 66 67 67 66 66 66 65 65 64 64 64 63 63 63 63 63 64 63 64 64 63 63 63
65 65 66 65 64 64 64 64 64 64 64 64 64 63 63 63 62 61 61 59 60 56 57 58 59 60 61 60 60 57 57 59 58 54 59 60 60 60 61 61 61 61 61 62 62 62 63 63 63 63 63 63 64 64 64 64 64 65 65 64 64 65 65 65 66 66 67 67 66 66 65 65 64 63 64 63 63 63 63 63 64 64 63 63 63
65 66 66 65 64 64 64 63 63 63 64 63 63 63 63 63 62 60 61 60 57 55 56 58 59 58 59 60 61 61 61 59 56 58 55 58 61 61 60 61 61 60 61 61 61 62 62 63 63 63 63 63 63 64 63 63 63 64 64 65 64 64 63 63 64 66 67 67 67 66 66 65 64 64 64 63 63 63 63 63 63 63 63 63 63
65 65 65 65 64 64 63 63 63 63 63 62 62 62 62 62 61 60 60 60 57 58 58 56 58 59 59 60 60 61 60 60 60 58 57 56 56 59 60 60 60 61 61 61 61 62 61 62 62 63 63 63 64 64 63 63 63 64 64 64 64 64 64 64 63 62 64 66 66 66 67 66 64 65 64 63 63 63 62 62 63 63 63 63 63
64 64 64 64 64 63 63 62 62 62 62 60 60 60 59 59 59 60 59 59 60 60 59 58 57 59 60 60 60 59 59 60 59 59 58 56 56 57 57 60 60 61 61 61 61 61 61 61 62 63 63 63 63 63 64 63 63 63 63 63 64 63 63 63 62 61 61 64 66 65 66 66 65 66 65 64 63 63 63 62 63 64 64 63 63
62 62 62 62 62 62 62 61 61 62 61 59 59 59 59 59 59 59 58 59 58 58 59 59 58 60 60 60 59 59 59 59 59 60 59 59 56 57 58 57 56 58 60 61 60 60 61 62 62 62 63 62 63 63 63 63 63 63 63 62 63 64 64 63 61 60 59 61 64 65 65 65 66 65 66 64 64 63 63 62 63 63 64 64 63
61 61 62 61 62 62 61 61 61 61 60 59 59 59 59 59 58 58 58 58 59 59 60 60 61 61 61 60 59 59 58 58 57 58 58 57 57 57 57 57 58 58 59 60 60 59 61 62 62 61 62 62 63 63 63 63 63 63 62 62 63 63 63 62 61 59 59 62 64 64 65 65 65 65 64 65 64 63 63 63 62 62 63 64 64
61 60 61 61 61 60 60 59 59 59 59 58 58 58 58 58 58 59 59 59 59 58 56 56 56 58 58 58 56 56 56 55 56 57 57 57 57 56 56 57 58 57 57 60 61 61 61 61 60 60 61 62 62 62 63 63 63 62 62 62 62 62 63 63 62 61 60 61 62 63 65 65 64 64 64 64 64 63 63 64 63 62 63 64 64
60 59 60 60 60 59 59 59 59 59 58 58 58 58 58 58 58 58 58 57 56 55 54 53 54 54 55 55 54 53 53 54 55 55 56 56 56 55 56 57 56 55 56 57 59 59 59 60 60 60 61 61 60 61 61 62 62 62 61 62 61 61 60 63 63 61 59 58 59 61 63 64 64 63 64 64 64 64 63 62 62 60 61 63 63
59 59 59 59 59 59 59 59 58 59 59 58 58 58 58 58 58 57 56 55 55 54 53 52 52 52 52 52 51 51 51 52 52 53 53 54 54 54 53 54 55 54 55 55 57 57 59 59 60 61 61 60 59 60 60 61 62 61 60 61 62 60 59 59 60 60 60 59 58 58 59 60 62 62 62 63 63 62 61 61 59 59 59 60 62
58 59 59 59 59 58 58 58 57 57 57 57 57 57 58 58 57 56 55 54 53 52 51 51 51 50 50 50 50 49 49 50 51 51 52 52 52 52 52 51 53 54 53 54 54 54 55 59 59 60 59 59 59 58 58 60 60 59 58 62 62 60 58 58 59 60 60 60 59 58 57 58 59 59 59 59 60 61 62 61 60 60 59 60 60
58 58 59 58 58 58 57 57 57 57 57 57 57 57 57 57 56 55 54 53 52 51 50 50 50 49 49 50 49 49 49 49 50 50 52 52 52 53 53 53 51 50 52 52 53 53 58 57 59 58 59 58 57 57 57 58 59 57 58 60 62 62 59 57 57 58 59 59 59 59 59 58 57 57 58 60 61 61 62 62 61 60 60 60 61
58 58 58 58 58 57 56 56 56 56 57 57 58 58 57 56 55 54 53 52 52 50 50 49 49 49 49 49 49 48 49 50 50 51 51 52 52 53 53 52 51 51 50 50 51 52 54 56 55 58 56 55 55 55 57 57 56 56 56 57 58 61 59 58 56 57 58 57 57 56 58 59 59 59 59 61 61 62 62 62 61 60 60 62 62
58 58 57 57 58 58 56 56 56 57 57 57 58 58 56 55 54 53 53 52 51 50 50 49 49 49 49 48 48 48 48 49 50 50 50 51 51 51 51 52 53 51 50 49 50 53 54 54 55 56 55 53 53 54 55 55 55 54 55 56 57 58 56 56 56 56 56 55 54 53 54 56 58 59 60 62 62 61 61 61 61 61 61 62 62
58 57 57 57 57 57 56 56 56 56 57 58 58 58 56 54 53 52 52 51 50 50 50 50 49 49 48 48 48 48 48 49 50 50 50 50 50 50 50 51 52 52 51 50 49 53 53 52 54 53 52 52 52 53 53 54 54 54 54 55 57 56 56 58 56 55 54 53 53 55 57 57 56 56 58 60 61 61 61 62 62 62 62 63 61
57 57 56 56 57 56 56 55 56 56 57 57 57 57 56 54 53 52 51 51 50 49 50 50 49 49 48 47 47 47 48 48 49 49 49 49 50 50 50 50 51 51 52 50 49 49 51 51 51 50 51 51 53 52 53 52 53 54 55 56 57 55 55 55 53 53 50 49 49 51 55 57 58 58 58 59 60 61 62 62 62 62 61 60 58
56 56 56 56 55 56 55 56 55 55 56 57 57 56 55 54 53 52 51 50 50 50 49 49 49 48 48 47 47 47 48 48 48 48 48 48 49 49 49 49 50 50 50 49 48 48 50 52 51 50 51 51 51 52 51 51 52 53 54 56 54 53 52 52 53 51 49 48 47 48 49 52 54 57 59 59 60 61 59 59 60 58 59 59 57
56 55 55 55 55 54 54 54 54 55 55 56 56 56 55 54 53 53 52 51 50 49 49 48 49 49 48 47 47 47 47 47 47 47 48 48 48 48 48 49 48 48 49 49 48 48 47 48 49 50 50 50 50 50 50 50 51 53 54 54 52 51 50 51 51 52 48 48 47 47 47 48 50 52 54 54 54 55 55 55 56 56 57 58 55
54 54 54 53 53 53 53 53 53 54 55 55 56 55 54 53 53 52 52 51 50 50 49 48 48 48 47 47 46 47 47 47 47 47 47 47 47 47 47 48 48 48 49 49 48 47 47 47 48 48 48 49 49 49 50 50 51 52 52 53 51 49 49 49 49 49 48 47 46 47 47 47 48 49 50 51 52 52 53 53 54 54 54 55 53
52 53 52 52 52 52 52 52 52 53 53 54 55 55 54 53 52 51 51 51 51 50 49 48 48 47 47 46 46 46 47 46 46 46 46 46 46 46 47 47 47 47 48 48 48 47 47 46 47 46 47 48 48 49 49 49 49 50 50 53 51 49 48 48 47 47 47 47 46 46 46 47 47 48 49 49 50 51 52 53 53 53 53 53 53
52 51 51 50 50 50 51 51 51 52 52 52 53 54 54 53 52 52 51 51 51 50 50 49 49 47 47 46 46 46 46 45 45 45 45 45 45 45 45 46 46 47 47 47 47 47 46 45 45 46 47 47 48 49 49 47 47 48 48 50 51 49 48 47 47 47 46 47 46 46 46 46 47 47 47 49 49 50 50 52 52 52 52 52 52
51 50 50 50 50 49 49 50 50 49 49 50 51 53 53 53 52 52 52 52 51 51 50 49 49 49 48 47 47 46 46 45 45 45 45 45 45 44 45 45 45 46 46 46 46 46 45 45 45 44 45 46 46 47 48 47 46 46 46 47 48 48 48 45 45 46 46 46 46 45 45 46 46 46 46 47 48 49 50 50 51 52 52 52 52
50 49 49 48 49 48 48 49 49 48 48 49 51 52 53 52 52 51 51 52 51 50 50 49 49 49 48 48 49 47 46 46 46 46 46 45 45 44 44 45 45 45 46 45 45 45 45 44 44 44 44 45 46 46 47 46 46 45 44 45 45 46 48 46 44 45 45 46 45 45 45 45 46 46 46 46 47 46 47 49 50 51 51 52 51
49 48 48 48 48 47 48 47 48 49 48 49 50 51 52 52 52 51 51 52 51 51 50 49 49 48 47 47 48 48 49 48 48 47 46 46 45 44 44 44 44 44 45 45 44 44 44 44 43 43 44 44 45 46 47 46 44 44 44 44 43 44 45 47 45 43 44 45 44 44 44 45 45 45 46 46 46 46 46 48 50 51 52 52 51
49 48 47 47 46 46 46 46 46 47 48 48 50 51 50 49 49 48 49 49 49 48 47 45 45 45 45 45 46 49 50 50 48 46 46 46 46 44 44 43 44 44 44 44 44 43 44 43 43 43 43 43 44 45 45 45 44 43 44 44 43 43 44 45 45 45 44 43 43 43 43 44 44 44 45 45 46 46 47 47 50 51 51 51 50
48 47 46 46 46 46 46 45 46 46 47 48 49 48 49 48 47 47 47 47 47 46 45 44 43 44 43 44 46 48 49 49 48 44 43 44 45 45 44 43 43 43 43 43 43 43 43 43 42 42 42 43 43 44 45 45 45 44 43 43 42 43 43 43 44 44 44 43 42 42 42 43 44 43 43 44 44 45 46 47 49 53 52 50 50
47 47 45 45 45 45 45 44 44 44 44 45 43 42 43 45 46 46 45 44 43 42 42 41 42 43 42 42 43 46 48 49 48 43 43 42 42 42 42 43 43 43 43 42 43 43 43 43 43 42 42 42 43 44 45 45 45 44 43 43 42 42 41 40 39 42 44 44 42 41 41 43 43 42 42 43 44 44 45 45 44 48 51 50 50
45 45 44 44 44 44 43 43 43 43 43 42 40 41 41 42 44 44 43 42 41 40 40 39 39 41 41 42 43 43 46 49 48 45 47 44 42 42 41 41 40 40 40 42 42 42 42 42 42 42 41 41 42 44 44 44 45 44 44 43 42 42 41 41 40 39 42 45 42 41 40 42 43 42 42 42 43 44 44 44 44 45 48 49 49
44 44 43 43 43 43 42 42 42 42 41 40 39 39 39 39 39 41 40 40 40 39 39 39 38 39 40 42 43 42 43 47 48 44 46 46 44 43 42 43 43 41 38 39 40 42 42 41 41 42 41 41 41 42 43 44 45 44 43 42 42 42 41 41 41 41 42 44 43 40 40 42 42 41 41 42 43 43 43 43 43 44 46 47 47
43 43 43 42 42 42 41 41 40 40 40 40 38 38 38 38 38 39 39 40 40 40 40 40 40 39 39 40 41 41 42 43 44 44 45 44 43 43 43 43 43 43 41 40 40 40 41 42 41 41 41 42 41 41 43 44 45 45 44 43 42 42 41 41 42 42 42 44 42 41 40 41 42 41 40 42 43 43 43 43 43 43 43 44 45
43 42 42 42 42 42 41 40 39 39 40 38 37 37 37 38 38 38 40 39 39 39 39 40 41 40 39 40 41 41 41 42 44 45 44 43 43 43 42 42 42 42 43 42 41 42 41 41 41 41 41 41 41 42 42 44 45 46 46 45 45 43 43 43 42 42 42 43 43 41 38 41 42 41 41 41 42 42 43 43 42 42 42 43 43
43 43 42 42 41 41 41 40 39 38 39 37 37 37 37 37 38 39 39 38 38 38 38 39 40 41 41 39 40 40 40 41 41 40 42 43 42 42 41 41 41 42 42 43 40 40 42 41 41 41 41 42 40 41 41 42 45 47 47 45 45 45 42 40 39 41 41 42 43 42 40 40 42 41 41 42 42 41 42 43 42 42 42 42 42
42 41 41 41 41 40 40 39 39 38 39 39 37 37 37 36 37 38 38 37 37 37 37 37 38 41 43 41 38 39 39 40 39 38 39 41 41 41 41 41 41 41 41 42 40 39 39 39 39 38 38 39 39 39 39 39 40 44 44 43 43 43 41 39 40 40 41 43 42 42 41 40 41 41 41 41 41 40 41 41 42 42 41 41 41
42 42 41 41 41 41 40 39 39 39 39 40 37 37 37 37 38 37 37 36 36 37 36 37 37 38 41 42 42 38 39 40 37 38 38 42 41 41 41 40 40 40 40 41 41 41 40 39 39 38 38 39 39 39 39 39 39 41 42 41 43 43 41 41 41 41 41 42 42 43 41 40 41 41 40 42 40 40 41 41 41 42 42 42 41
42 42 43 41 41 41 40 40 43 40 40 41 37 37 37 37 39 37 36 36 36 35 36 35 36 36 37 39 40 39 39 39 36 37 38 41 41 41 41 41 40 40 40 41 41 40 40 40 40 41 40 40 41 40 40 39 40 40 40 40 42 42 41 40 40 41 40 40 42 43 40 40 40 40 40 39 39 40 40 40 40 41 41 42 42